Date String (YYYY-MM-DD hh:mm:ss) UTC,Instrument flags,Ambient pressure (hPa),Sample flow (lpm),Bypass flow (lpm),Sample temperature (°C),Ambient temperature (°C),ASC tube jacket temperature (°C),LED temperature (°C),Box temperature (°C),Sample RH (%),Span deviation,Mass concentration (μg/m³),Mass concentration (μg/m³),Mass concentration (μg/m³)
DateTimeUTC,F1_M11,P_M11,Q1_M11,Q2_M11,T1_M11,T2_M11,T3_M11,T4_M11,T5_M11,U1_M11,ZSPAN_M11,X0_M11,X2_M11,X1_M11
2022-04-22 20:00:00,,0808.0,4.99,0.00,29.4,27.3,00.0,38.3,31.1,05.9,0000.0,0014.44,0004.25,0002.22
2022-04-22 20:01:00,,0807.9,5.00,0.00,29.4,27.6,00.0,38.3,31.2,05.6,0000.0,0016.26,0004.23,0002.20
2022-04-22 20:02:00,,0807.9,5.01,0.00,29.4,27.9,00.0,38.3,31.2,05.6,0000.0,0016.97,0004.17,0002.18
2022-04-22 20:03:00,,0807.7,4.98,0.00,29.5,28.1,00.0,38.3,31.3,05.6,0000.0,0017.12,0004.23,0002.20
2022-04-22 20:04:00,,0807.6,5.02,0.00,29.5,28.3,00.0,38.3,31.4,05.4,0000.0,0017.95,0004.29,0002.22
2022-04-22 20:05:00,,0807.7,4.99,0.00,29.5,28.3,00.0,38.3,31.4,05.3,0000.0,0017.69,0004.34,0002.23
2022-04-22 20:06:00,,0807.7,5.01,0.00,29.6,28.4,00.0,38.3,31.4,05.3,0000.0,0016.81,0004.33,0002.24
2022-04-22 20:07:00,,0807.6,4.99,0.00,29.6,28.5,00.0,38.4,31.5,05.4,0000.0,0016.57,0004.34,0002.23
2022-04-22 20:08:00,,0807.6,5.01,0.00,29.6,28.2,00.0,38.4,31.4,05.5,0000.0,0016.58,0004.33,0002.23
2022-04-22 20:09:00,,0807.6,5.00,0.00,29.6,26.3,00.0,38.4,31.0,05.7,0000.0,0016.10,0004.30,0002.24
2022-04-22 20:10:00,,0807.6,5.01,0.00,29.4,25.4,00.0,38.4,30.8,06.2,0000.0,0016.00,0004.21,0002.22
2022-04-22 20:11:00,,0807.6,4.99,0.00,29.4,25.9,00.0,38.3,30.9,06.1,0000.0,0015.94,0004.26,0002.22
2022-04-22 20:12:00,,0807.5,5.00,0.00,29.3,26.3,00.0,38.3,30.9,05.6,0000.0,0014.38,0004.23,0002.23
2022-04-22 20:13:00,,0807.5,5.01,0.00,29.3,26.8,00.0,38.3,31.0,05.4,0000.0,0013.46,0004.25,0002.25
2022-04-22 20:14:00,,0807.5,4.99,0.00,29.4,27.2,00.0,38.3,31.1,05.6,0000.0,0013.65,0004.22,0002.25
2022-04-22 20:15:00,,0807.4,4.99,0.00,29.4,27.6,00.0,38.3,31.2,05.5,0000.0,0013.43,0004.20,0002.24
2022-04-22 20:16:00,,0807.3,5.01,0.00,29.4,27.9,00.0,38.3,31.2,05.4,0000.0,0013.03,0004.22,0002.25
2022-04-22 20:17:00,,0807.3,5.00,0.00,29.5,28.1,00.0,38.3,31.3,05.4,0000.0,0012.98,0004.23,0002.25
2022-04-22 20:18:00,,0807.2,5.02,0.00,29.5,28.3,00.0,38.3,31.3,05.8,0000.0,0013.37,0004.23,0002.26
2022-04-22 20:19:00,,0807.2,4.98,0.00,29.6,28.5,00.0,38.3,31.4,05.9,0000.0,0013.74,0004.23,0002.26
2022-04-22 20:20:00,,0807.1,5.02,0.00,29.6,28.6,00.0,38.3,31.4,05.9,0000.0,0015.38,0004.27,0002.25
2022-04-22 20:21:00,,0807.1,4.99,0.00,29.7,28.7,00.0,38.4,31.5,05.4,0000.0,0015.55,0004.32,0002.25
2022-04-22 20:22:00,,0807.1,5.01,0.00,29.7,28.7,00.0,38.4,31.5,05.6,0000.0,0016.00,0004.31,0002.26
2022-04-22 20:23:00,,0807.0,5.00,0.00,29.7,27.3,00.0,38.4,31.3,05.8,0000.0,0016.84,0004.37,0002.27
2022-04-22 20:24:00,,0807.0,5.01,0.00,29.5,25.7,00.0,38.4,31.0,05.7,0000.0,0016.99,0004.40,0002.26
2022-04-22 20:25:00,,0807.0,5.01,0.00,29.5,25.8,00.0,38.4,30.9,06.0,0000.0,0016.70,0004.42,0002.26
2022-04-22 20:26:00,,0806.9,4.99,0.00,29.4,26.2,00.0,38.3,31.0,05.9,0000.0,0015.95,0004.44,0002.27
2022-04-22 20:27:00,,0806.9,5.00,0.00,29.4,26.7,00.0,38.3,31.0,05.8,0000.0,0015.93,0004.39,0002.24
2022-04-22 20:28:00,,0807.0,4.99,0.00,29.4,27.1,00.0,38.3,31.1,05.5,0000.0,0016.41,0004.38,0002.23
2022-04-22 20:29:00,,0806.9,5.00,0.00,29.4,27.5,00.0,38.3,31.2,05.8,0000.0,0016.85,0004.35,0002.22
2022-04-22 20:30:00,,0806.8,5.01,0.00,29.5,27.8,00.0,38.3,31.3,05.6,0000.0,0017.20,0004.38,0002.23
2022-04-22 20:31:00,,0806.8,4.99,0.00,29.5,28.0,00.0,38.3,31.3,05.6,0000.0,0015.63,0004.33,0002.23
2022-04-22 20:32:00,,0806.7,5.01,0.00,29.5,28.2,00.0,38.3,31.4,05.7,0000.0,0016.14,0004.33,0002.23
2022-04-22 20:33:00,,0806.7,4.99,0.00,29.6,28.4,00.0,38.3,31.4,05.9,0000.0,0016.04,0004.35,0002.22
2022-04-22 20:34:00,,0806.6,5.00,0.00,29.6,28.6,00.0,38.4,31.5,05.6,0000.0,0015.32,0004.32,0002.20
2022-04-22 20:35:00,,0806.6,5.00,0.00,29.7,28.7,00.0,38.4,31.5,05.5,0000.0,0015.52,0004.35,0002.20
2022-04-22 20:36:00,,0806.6,5.00,0.00,29.7,27.8,00.0,38.4,31.4,05.6,0000.0,0016.68,0004.38,0002.21
2022-04-22 20:37:00,,0806.5,5.02,0.00,29.6,26.4,00.0,38.4,31.1,05.5,0000.0,0017.87,0004.39,0002.20
2022-04-22 20:38:00,,0806.4,5.00,0.00,29.5,26.6,00.0,38.4,31.1,05.6,0000.0,0018.50,0004.46,0002.23
2022-04-22 20:39:00,,0806.4,5.00,0.00,29.5,26.9,00.0,38.4,31.2,05.7,0000.0,0018.27,0004.49,0002.24
2022-04-22 20:40:00,,0806.4,4.98,0.00,29.5,27.3,00.0,38.4,31.2,05.7,0000.0,0018.26,0004.49,0002.24
2022-04-22 20:41:00,,0806.4,4.99,0.00,29.5,27.6,00.0,38.4,31.3,05.7,0000.0,0019.03,0004.47,0002.24
2022-04-22 20:42:00,,0806.3,5.01,0.00,29.6,27.9,00.0,38.4,31.4,05.5,0000.0,0019.45,0004.54,0002.26
2022-04-22 20:43:00,,0806.4,5.00,0.00,29.6,28.2,00.0,38.4,31.4,05.6,0000.0,0019.44,0004.60,0002.29
2022-04-22 20:44:00,,0806.3,4.99,0.00,29.6,28.4,00.0,38.4,31.5,05.4,0000.0,0020.06,0004.65,0002.27
2022-04-22 20:45:00,,0806.3,5.01,0.00,29.7,28.4,00.0,38.4,31.5,05.5,0000.0,0021.10,0004.70,0002.30
2022-04-22 20:46:00,,0806.2,4.99,0.00,29.6,26.9,00.0,38.4,31.2,05.4,0000.0,0021.09,0004.71,0002.31
2022-04-22 20:47:00,,0806.2,4.99,0.00,29.5,26.3,00.0,38.4,31.0,05.3,0000.0,0020.24,0004.71,0002.30
2022-04-22 20:48:00,,0806.1,5.00,0.00,29.5,26.6,00.0,38.4,31.1,05.4,0000.0,0019.27,0004.69,0002.29
2022-04-22 20:49:00,,0806.1,5.00,0.00,29.5,27.0,00.0,38.4,31.2,05.5,0000.0,0018.94,0004.65,0002.29
2022-04-22 20:50:00,,0806.1,5.00,0.00,29.5,27.4,00.0,38.4,31.2,05.6,0000.0,0019.15,0004.64,0002.30
2022-04-22 20:51:00,,0806.0,5.01,0.00,29.5,27.7,00.0,38.4,31.3,05.4,0000.0,0018.67,0004.69,0002.33
2022-04-22 20:52:00,,0806.0,4.98,0.00,29.6,28.0,00.0,38.4,31.4,05.6,0000.0,0017.08,0004.67,0002.33
2022-04-22 20:53:00,,0806.0,5.02,0.00,29.6,28.2,00.0,38.4,31.4,05.6,0000.0,0016.62,0004.66,0002.31
2022-04-22 20:54:00,,0805.9,5.01,0.00,29.7,28.4,00.0,38.4,31.5,05.5,0000.0,0015.96,0004.62,0002.31
2022-04-22 20:55:00,,0805.9,5.00,0.00,29.7,28.1,00.0,38.4,31.4,05.8,0000.0,0014.98,0004.58,0002.33
2022-04-22 20:56:00,,0805.9,4.98,0.00,29.6,26.1,00.0,38.4,31.0,05.8,0000.0,0015.38,0004.59,0002.33
2022-04-22 20:57:00,,0805.9,5.01,0.00,29.4,25.4,00.0,38.4,30.8,05.8,0000.0,0015.81,0004.65,0002.34
2022-04-22 20:58:00,,0805.8,5.00,0.00,29.4,25.8,00.0,38.4,30.9,06.0,0000.0,0016.53,0004.72,0002.35
2022-04-22 20:59:00,,0805.8,5.00,0.00,29.4,26.3,00.0,38.3,31.0,05.8,0000.0,0016.71,0004.81,0002.38
